1507420801.1,50462,10.88,73100.0,-7.33,-8.67,-8.59,0,*5F
1507420802.29,50463,10.88,73100.5,-7.33,-8.59,-8.59,0,*53
1507420803.48,50464,10.88,73096.8,-7.33,-8.67,-8.67,0,*54
1507420804.7,50465,10.88,73100.5,-7.31,-8.59,-8.59,0,*57
1507420805.91,50466,10.88,73098.5,-7.31,-8.67,-8.59,0,*59
1507420807.13,50467,10.88,73102.0,-7.31,-8.67,-8.59,0,*58
1507420808.34,50468,10.88,73094.0,-7.31,-8.59,-8.59,0,*5A
1507420809.56,50469,10.88,73094.0,-7.31,-8.67,-8.59,0,*56
1507420810.77,50470,10.88,73098.0,-7.31,-8.67,-8.67,0,*53
1507420811.99,50471,10.88,73096.5,-7.31,-8.67,-8.59,0,*5F
1507420813.2,50472,10.88,73094.8,-7.31,-8.67,-8.67,0,*51
1507420814.41,50473,10.88,73094.3,-7.31,-8.67,-8.59,0,*5D
1507420815.63,50474,10.88,73094.5,-7.31,-8.59,-8.67,0,*5A
1507420816.82,50475,10.88,73096.0,-7.33,-8.67,-8.59,0,*59
1507420818.01,50476,10.88,73092.3,-7.33,-8.67,-8.67,0,*57
1507420819.22,50477,10.88,73092.8,-7.31,-8.67,-8.67,0,*54
1507420820.44,50478,10.88,73096.0,-7.31,-8.71,-8.59,0,*51
1507420821.66,50479,10.88,73100.3,-7.31,-8.71,-8.67,0,*5D
1507420822.88,50480,10.88,73098.8,-7.31,-8.71,-8.67,0,*5B
1507420824.1,50481,10.88,73098.0,-7.31,-8.71,-8.67,0,*5A
1507420825.31,50482,10.88,73096.8,-7.31,-8.67,-8.67,0,*5E
1507420826.52,50483,10.88,73092.5,-7.31,-8.67,-8.67,0,*5F
1507420827.79,50484,10.88,73096.3,-7.31,-8.81,-8.81,0,*58
1507420829.03,50485,10.88,73094.3,-7.31,-8.71,-8.81,0,*56
1507420830.3,50486,10.88,73090.5,-7.31,-8.81,-8.81,0,*5A
1507420831.51,50487,10.88,73086.5,-7.29,-8.81,-8.75,0,*59
1507420832.75,50488,10.88,73090.0,-7.31,-8.85,-8.81,0,*50
1507420834.02,50489,10.88,73094.8,-7.31,-8.81,-8.81,0,*55
1507420835.24,50490,10.88,73088.5,-7.31,-8.93,-8.93,0,*5D
1507420836.48,50491,10.88,73090.5,-7.29,-8.81,-8.81,0,*55
1507420837.71,50492,10.88,73088.5,-7.31,-8.93,-8.85,0,*58
1507420838.93,50493,10.88,73090.8,-7.31,-8.85,-8.71,0,*55
1507420840.16,50494,10.88,73094.8,-7.33,-8.93,-8.81,0,*58
1507420841.37,50495,10.88,73096.0,-7.33,-8.81,-8.71,0,*55
1507420842.59,50496,10.88,73094.0,-7.33,-8.81,-8.71,0,*56
1507420843.79,50497,10.88,73098.0,-7.33,-8.71,-8.71,0,*58
1507420844.99,50498,10.88,73094.3,-7.33,-8.71,-8.71,0,*57
1507420846.23,50499,10.88,73094.5,-7.33,-8.81,-8.81,0,*56
1507420847.45,50500,10.88,73094.0,-7.33,-8.81,-8.71,0,*58
1507420848.69,50501,10.88,73090.5,-7.31,-8.81,-8.71,0,*5B
1507420849.95,50502,10.88,73092.0,-7.31,-8.81,-8.81,0,*57
1507420851.18,50503,10.88,73094.8,-7.31,-8.71,-8.71,0,*56
1507420852.38,50504,10.88,73090.0,-7.33,-8.71,-8.71,0,*53
1507420853.59,50505,10.88,73086.0,-7.33,-8.81,-8.67,0,*5A
1507420854.81,50506,10.88,73094.0,-7.33,-8.81,-8.71,0,*5E
1507420856.02,50507,10.88,73088.3,-7.33,-8.81,-8.71,0,*5F
1507420857.24,50508,10.88,73090.5,-7.33,-8.81,-8.71,0,*50
1507420858.48,50509,10.88,73086.8,-7.33,-8.81,-8.81,0,*5E
1507420859.71,50510,10.88,73090.5,-7.33,-8.85,-8.81,0,*52
1507420860.94,50511,10.88,73086.0,-7.35,-8.89,-8.85,0,*5D
1507420862.16,50512,10.88,73086.8,-7.33,-8.85,-8.81,0,*50
1507420863.37,50513,10.88,73094.3,-7.33,-8.71,-8.71,0,*55
1507420864.61,50514,10.88,73090.0,-7.33,-8.81,-8.81,0,*52
1507420865.82,50515,10.88,73092.0,-7.33,-8.81,-8.71,0,*5C
1507420867.06,50516,10.88,73092.8,-7.35,-8.89,-8.89,0,*56
1507420868.29,50517,10.88,73092.3,-7.35,-8.89,-8.89,0,*57
1507420869.5,50518,10.88,73094.3,-7.33,-8.93,-8.85,0,*59
1507420870.7,50519,10.88,73090.3,-7.33,-8.93,-8.93,0,*5F
1507420871.93,50520,10.88,73090.8,-7.31,-8.93,-8.93,0,*57
1507420873.16,50521,10.88,73090.5,-7.31,-8.93,-8.93,0,*56
1507420874.37,50522,10.88,73088.3,-7.33,-8.93,-8.93,0,*57
1507420875.57,50523,10.88,73092.3,-7.33,-8.93,-8.93,0,*56
1507420876.77,50524,10.88,73094.8,-7.33,-8.97,-8.93,0,*55
1507420877.97,50525,10.88,73096.5,-7.33,-8.97,-8.85,0,*53
1507420879.17,50526,10.88,73096.3,-7.33,-8.97,-8.93,0,*57
1507420880.37,50527,10.88,73096.0,-7.33,-8.97,-8.93,0,*56
1507420881.57,50528,10.88,73092.3,-7.33,-8.97,-8.93,0,*59
1507420882.77,50529,10.88,73096.3,-7.33,-8.93,-8.93,0,*5C
1507420883.98,50530,10.88,73094.3,-7.33,-8.93,-8.93,0,*54
1507420885.18,50531,10.88,73092.8,-7.33,-8.93,-8.93,0,*55
1507420886.39,50532,10.88,73094.0,-7.33,-8.93,-8.85,0,*51
1507420887.6,50533,10.88,73088.8,-7.33,-8.93,-8.85,0,*50
1507420888.83,50534,10.88,73082.8,-7.35,-9.01,-8.97,0,*58
1507420890.03,50535,10.88,73086.3,-7.33,-8.97,-8.93,0,*55
1507420891.23,50536,10.88,73084.0,-7.33,-8.97,-8.97,0,*52
1507420892.42,50537,10.88,73092.3,-7.33,-8.97,-8.97,0,*53
1507420893.63,50538,10.88,73096.5,-7.33,-8.97,-9.01,0,*52
1507420894.86,50539,10.88,73092.0,-7.35,-9.01,-9.01,0,*5B
1507420896.07,50540,10.88,73090.0,-7.33,-8.93,-8.85,0,*54
1507420897.3,50541,10.88,73084.5,-7.35,-8.97,-8.97,0,*54
1507420898.52,50542,10.88,73080.8,-7.35,-8.97,-8.97,0,*57
1507420899.76,50543,10.88,73086.5,-7.35,-8.89,-8.89,0,*56
1507420900.96,50544,10.88,73086.0,-7.33,-8.85,-8.85,0,*57
1507420902.19,50545,10.88,73094.8,-7.35,-8.85,-8.75,0,*5F
1507420903.39,50546,10.88,73092.8,-7.33,-8.71,-8.71,0,*55
1507420904.59,50547,10.88,73092.3,-7.33,-8.71,-8.71,0,*54
1507420905.81,50548,10.88,73092.8,-7.35,-8.75,-8.75,0,*5D
1507420907.03,50549,10.88,73096.3,-7.33,-8.81,-8.71,0,*55
1507420908.26,50550,10.88,73092.0,-7.35,-8.71,-8.75,0,*50
1507420909.49,50551,10.88,73094.8,-7.35,-8.85,-8.75,0,*5A
1507420910.71,50552,10.88,73094.0,-7.35,-8.75,-8.71,0,*52
1507420911.93,50553,10.88,73096.0,-7.35,-8.71,-8.71,0,*57
1507420913.16,50554,10.88,73092.5,-7.35,-8.75,-8.71,0,*54
1507420914.35,50555,10.88,73094.8,-7.33,-8.67,-8.59,0,*5A
1507420915.57,50556,10.88,73096.0,-7.35,-8.75,-8.75,0,*52
1507420916.79,50557,10.88,73094.3,-7.35,-8.75,-8.71,0,*57
1507420918.03,50558,10.88,73092.0,-7.33,-8.81,-8.81,0,*5A
1507420919.25,50559,10.88,73090.8,-7.35,-8.75,-8.75,0,*5D
1507420920.48,50560,10.88,73090.3,-7.35,-8.75,-8.85,0,*58
1507420921.68,50561,10.88,73086.0,-7.33,-8.71,-8.71,0,*50
1507420922.88,50562,10.88,73082.8,-7.33,-8.71,-8.59,0,*59
1507420924.07,50563,10.88,73084.0,-7.33,-8.67,-8.67,0,*52
1507420925.26,50564,10.88,73090.3,-7.33,-8.67,-8.67,0,*55
1507420926.45,50565,10.88,73086.5,-7.33,-8.71,-8.67,0,*53
1507420927.68,50566,10.88,73086.3,-7.35,-8.75,-8.71,0,*55
1507420928.9,50567,10.88,73086.5,-7.35,-8.75,-8.75,0,*50
1507420930.11,50568,10.88,73086.3,-7.33,-8.81,-8.71,0,*56
1507420931.34,50569,10.88,73086.8,-7.35,-8.85,-8.75,0,*51
1507420932.58,50570,10.88,73084.0,-7.33,-8.81,-8.81,0,*50
1507420933.82,50571,10.88,73084.3,-7.33,-8.81,-8.81,0,*51
1507420935.05,50572,10.88,73084.8,-7.35,-8.75,-8.85,0,*5B
1507420936.29,50573,10.88,73084.3,-7.35,-8.85,-8.85,0,*55
1507420937.51,50574,10.88,73090.5,-7.35,-8.75,-8.75,0,*52
1507420938.73,50575,10.88,73092.5,-7.35,-8.85,-8.75,0,*5C
1507420939.96,50576,10.88,73096.8,-7.35,-8.75,-8.71,0,*54
1507420941.18,50577,10.88,73090.5,-7.35,-8.75,-8.59,0,*5F
1507420942.38,50578,10.88,73092.5,-7.33,-8.71,-8.75,0,*5C
1507420943.58,50579,10.88,73096.8,-7.33,-8.71,-8.71,0,*59
1507420944.77,50580,10.88,73092.8,-7.33,-8.59,-8.59,0,*5F
1507420945.96,50581,10.88,73090.5,-7.33,-8.67,-8.67,0,*5E
1507420947.15,50582,10.88,73084.0,-7.33,-8.67,-8.59,0,*50
1507420948.38,50583,10.88,73080.5,-7.35,-8.71,-8.71,0,*5A
1507420949.57,50584,10.88,73090.8,-7.33,-8.67,-8.67,0,*5B
1507420950.8,50585,10.88,73088.5,-7.35,-8.71,-8.63,0,*5F
1507420951.99,50586,10.88,73094.5,-7.33,-8.71,-8.67,0,*5E
1507420953.19,50587,10.88,73086.0,-7.33,-8.67,-8.71,0,*5F
1507420954.37,50588,10.88,73084.0,-7.33,-8.67,-8.67,0,*57
1507420955.6,50589,10.88,73086.8,-7.35,-8.71,-8.71,0,*50
1507420956.81,50590,10.88,73084.5,-7.33,-8.81,-8.67,0,*56
1507420958.04,50591,10.88,73080.3,-7.35,-8.85,-8.71,0,*52
1507420959.28,50592,10.88,73078.0,-7.35,-8.85,-8.85,0,*5A
1507420960.52,50593,10.88,73076.3,-7.33,-8.81,-8.81,0,*5D
1507420961.74,50594,10.88,73084.3,-7.35,-8.75,-8.71,0,*58
1507420962.94,50595,10.88,73090.3,-7.33,-8.71,-8.59,0,*51
1507420964.16,50596,10.88,73088.3,-7.35,-8.75,-8.71,0,*5A
1507420965.36,50597,10.88,73084.8,-7.33,-8.71,-8.67,0,*5E
1507420966.6,50598,10.88,73080.3,-7.33,-8.81,-8.81,0,*56
1507420967.81,50599,10.88,73082.5,-7.33,-8.81,-8.71,0,*58
1507420969.03,50600,10.88,73080.3,-7.33,-8.81,-8.71,0,*5B
1507420970.26,50601,10.88,73084.3,-7.35,-8.85,-8.75,0,*5C
1507420971.49,50602,10.88,73084.0,-7.35,-8.85,-8.75,0,*5F
1507420972.72,50603,10.88,73090.0,-7.35,-8.85,-8.85,0,*51
1507420973.92,50604,10.88,73080.8,-7.33,-8.75,-8.75,0,*50
1507420975.14,50605,10.88,73084.5,-7.35,-8.85,-8.75,0,*58
1507420976.35,50606,10.88,73084.5,-7.33,-8.85,-8.85,0,*52
1507420977.57,50607,10.88,73086.0,-7.35,-8.75,-8.75,0,*55
1507420978.77,50608,10.88,73086.8,-7.33,-8.71,-8.75,0,*58
1507420980.0,50609,10.88,73084.8,-7.33,-8.81,-8.85,0,*59
1507420981.2,50610,10.88,73088.3,-7.33,-8.71,-8.71,0,*55
1507420982.43,50611,10.88,73082.0,-7.35,-8.85,-8.75,0,*5D
1507420983.65,50612,10.88,73084.0,-7.33,-8.81,-8.85,0,*53
1507420984.89,50613,10.88,73076.0,-7.35,-8.89,-8.89,0,*50
1507420986.12,50614,10.88,73084.0,-7.35,-8.89,-8.89,0,*57
1507420987.34,50615,10.88,73086.5,-7.33,-8.85,-8.81,0,*54
1507420988.57,50616,10.88,73086.3,-7.35,-8.85,-8.75,0,*5A
1507420989.81,50617,10.88,73080.8,-7.35,-8.85,-8.85,0,*54
1507420991.03,50618,10.88,73082.5,-7.35,-8.75,-8.75,0,*5B
1507420992.24,50619,10.88,73086.5,-7.33,-8.81,-8.67,0,*54
1507420993.47,50620,10.88,73088.0,-7.35,-8.71,-8.71,0,*50
1507420994.67,50621,10.88,73082.8,-7.33,-8.71,-8.59,0,*5D
1507420995.89,50622,10.88,73086.3,-7.35,-8.75,-8.75,0,*52
1507420997.12,50623,10.88,73082.0,-7.35,-8.85,-8.75,0,*5C
1507420998.34,50624,10.88,73086.3,-7.35,-8.75,-8.75,0,*54
1507420999.55,50625,10.88,73080.0,-7.33,-8.81,-8.67,0,*5B
1507421000.78,50626,10.88,73076.0,-7.35,-8.75,-8.85,0,*59
1507421002.02,50627,10.88,73074.5,-7.33,-8.81,-8.81,0,*51
1507421003.23,50628,10.88,73074.3,-7.33,-8.89,-8.85,0,*52
1507421004.43,50629,10.88,73072.3,-7.33,-8.85,-8.75,0,*50
1507421005.67,50630,10.88,73086.3,-7.33,-8.81,-8.81,0,*57
1507421006.9,50631,10.88,73088.0,-7.35,-8.97,-8.89,0,*5F
1507421008.13,50632,10.88,73084.3,-7.35,-8.97,-8.89,0,*5C
1507421009.34,50633,10.88,73082.8,-7.33,-8.85,-8.85,0,*54
1507421010.54,50634,10.88,73082.5,-7.33,-8.85,-8.85,0,*53
1507421011.78,50635,10.88,73080.8,-7.35,-8.89,-8.89,0,*54
1507421013.0,50636,10.88,73084.8,-7.33,-8.85,-8.81,0,*55
1507421014.24,50637,10.88,73086.8,-7.35,-8.89,-8.89,0,*56
1507421015.47,50638,10.88,73088.8,-7.35,-8.89,-8.85,0,*55
1507421016.7,50639,10.88,73088.0,-7.35,-8.89,-8.75,0,*5B
1507421017.93,50640,10.88,73090.3,-7.35,-8.75,-8.85,0,*59
1507421019.15,50641,10.88,73086.5,-7.35,-8.75,-8.75,0,*57
1507421020.35,50642,10.88,73090.5,-7.33,-8.71,-8.67,0,*55
1507421021.54,50643,10.88,73088.3,-7.33,-8.71,-8.67,0,*54
1507421022.74,50644,10.88,73090.8,-7.33,-8.67,-8.59,0,*59
1507421023.95,50645,10.88,73090.0,-7.31,-8.59,-8.59,0,*57
1507421025.15,50646,10.88,73092.0,-7.33,-8.71,-8.71,0,*56
1507421026.37,50647,10.88,73090.5,-7.33,-8.81,-8.71,0,*58
1507421027.57,50648,10.88,73088.5,-7.33,-8.71,-8.67,0,*5F
1507421028.76,50649,10.88,73092.0,-7.33,-8.71,-8.67,0,*5E
1507421029.96,50650,10.88,73090.5,-7.33,-8.71,-8.67,0,*56
1507421031.19,50651,10.88,73092.8,-7.35,-8.71,-8.71,0,*56
1507421032.37,50652,10.88,73090.3,-7.33,-8.59,-8.67,0,*5E
1507421033.6,50653,10.88,73088.8,-7.35,-8.71,-8.71,0,*54
1507421034.8,50654,10.88,73094.8,-7.33,-8.59,-8.59,0,*55
1507421036.0,50655,10.88,73086.5,-7.33,-8.71,-8.71,0,*54
1507421037.2,50656,10.88,73086.5,-7.33,-8.71,-8.59,0,*5D
1507421038.38,50657,10.88,73088.8,-7.33,-8.67,-8.67,0,*56
1507421039.58,50658,10.88,73086.5,-7.33,-8.71,-8.67,0,*5E
1507421040.77,50659,10.88,73088.8,-7.33,-8.59,-8.67,0,*55
1507421041.96,50660,10.88,73086.3,-7.33,-8.67,-8.67,0,*52
1507421043.15,50661,10.88,73086.3,-7.33,-8.59,-8.59,0,*53
1507421044.38,50662,10.88,73078.5,-7.35,-8.71,-8.71,0,*56
1507421045.6,50663,10.88,73080.8,-7.33,-8.81,-8.71,0,*5E
1507421046.83,50664,10.88,73080.5,-7.35,-8.89,-8.85,0,*5C
1507421048.04,50665,10.88,73082.8,-7.33,-8.85,-8.71,0,*5C
1507421049.27,50666,10.88,73090.0,-7.33,-8.81,-8.81,0,*54
1507421050.51,50667,10.88,73084.3,-7.33,-8.81,-8.81,0,*55
1507421051.74,50668,10.88,73080.8,-7.33,-8.71,-8.81,0,*55
1507421052.96,50669,10.88,73082.3,-7.33,-8.85,-8.81,0,*5F
1507421054.19,50670,10.88,73078.8,-7.33,-8.85,-8.81,0,*57
1507421055.39,50671,10.88,73086.3,-7.33,-8.85,-8.71,0,*59
1507421056.61,50672,10.88,73084.0,-7.35,-8.75,-8.75,0,*57
1507421057.81,50673,10.88,73086.8,-7.33,-8.71,-8.71,0,*50
1507421059.03,50674,10.88,73090.3,-7.33,-8.81,-8.71,0,*58
1507421060.24,50675,10.88,73086.5,-7.33,-8.81,-8.71,0,*59
1507421061.46,50676,10.88,73086.3,-7.33,-8.81,-8.71,0,*5A
1507421062.69,50677,10.88,73092.3,-7.33,-8.85,-8.81,0,*50
1507421063.91,50678,10.88,73086.8,-7.33,-8.81,-8.85,0,*5F
1507421065.12,50679,10.88,73086.0,-7.33,-8.93,-8.85,0,*5D
1507421066.33,50680,10.88,73084.3,-7.33,-8.85,-8.85,0,*5C
1507421067.54,50681,10.88,73084.0,-7.33,-8.85,-8.85,0,*5D
1507421068.76,50682,10.88,73090.8,-7.35,-8.97,-8.97,0,*58
1507421069.97,50683,10.88,73088.5,-7.33,-8.85,-8.85,0,*5F
1507421071.17,50684,10.88,73094.0,-7.33,-8.89,-8.97,0,*57
1507421072.38,50685,10.88,73092.8,-7.33,-8.93,-8.93,0,*59
1507421073.59,50686,10.88,73090.5,-7.33,-8.93,-8.85,0,*5D
1507421074.79,50687,10.88,73086.8,-7.33,-8.85,-8.93,0,*5C
1507421076.0,50688,10.88,73088.3,-7.33,-8.85,-8.93,0,*53
1507421077.21,50689,10.81,73080.8,-7.33,-8.93,-8.85,0,*52
1507421078.41,50690,10.88,73084.5,-7.33,-8.85,-8.85,0,*5D
1507421079.65,50691,10.88,73086.8,-7.35,-8.85,-8.89,0,*56
1507421080.87,50692,10.88,73084.5,-7.33,-8.85,-8.81,0,*5B
1507421082.1,50693,10.88,73078.0,-7.35,-8.89,-8.97,0,*57
1507421083.31,50694,10.88,73076.8,-7.33,-8.85,-8.85,0,*59
1507421084.52,50695,10.88,73076.8,-7.33,-8.85,-8.93,0,*5F
1507421085.75,50696,10.88,73082.8,-7.35,-8.97,-8.89,0,*52
1507421086.95,50697,10.88,73088.0,-7.33,-8.71,-8.71,0,*5A
1507421088.15,50698,10.88,73092.3,-7.33,-8.71,-8.85,0,*5E
1507421089.39,50699,10.88,73088.5,-7.35,-8.85,-8.85,0,*52
1507421090.62,50700,10.88,73088.5,-7.35,-8.85,-8.75,0,*5C
1507421091.84,50701,10.88,73090.3,-7.33,-8.85,-8.81,0,*50
1507421093.08,50702,10.81,73084.3,-7.35,-8.89,-8.89,0,*51
1507421094.29,50703,10.88,73084.5,-7.33,-8.93,-8.85,0,*51
1507421095.49,50704,10.88,73082.8,-7.33,-8.93,-8.85,0,*56
1507421096.7,50705,10.88,73086.0,-7.33,-8.93,-8.85,0,*57
1507421097.93,50706,10.88,73090.0,-7.35,-8.97,-8.97,0,*55
1507421099.15,50707,10.88,73090.0,-7.35,-8.97,-8.97,0,*54
1507421100.38,50708,10.81,73084.5,-7.35,-8.97,-8.97,0,*5B
1507421101.58,50709,10.88,73088.0,-7.33,-8.93,-8.85,0,*5B
1507421102.79,50710,10.81,73080.3,-7.33,-8.93,-8.85,0,*53
1507421104.0,50711,10.88,73074.3,-7.33,-8.85,-8.85,0,*55
1507421105.24,50712,10.88,73084.3,-7.35,-8.89,-8.89,0,*50
1507421106.44,50713,10.88,73082.0,-7.33,-8.93,-8.85,0,*50
1507421107.68,50714,10.88,73084.0,-7.35,-8.89,-8.97,0,*59
1507421108.9,50715,10.88,73084.3,-7.35,-8.97,-8.89,0,*58
1507421110.13,50716,10.88,73092.0,-7.35,-8.97,-8.97,0,*54
1507421111.36,50717,10.88,73084.3,-7.35,-8.89,-8.89,0,*55
1507421112.59,50718,10.88,73074.5,-7.35,-8.97,-8.75,0,*56
1507421113.82,50719,10.88,73066.0,-7.35,-8.85,-8.85,0,*5B
1507421115.03,50720,10.88,73078.0,-7.33,-8.85,-8.93,0,*50
1507421116.26,50721,10.81,73082.5,-7.35,-8.89,-8.89,0,*50
1507421117.49,50722,10.88,73090.5,-7.35,-8.75,-8.85,0,*5C
1507421118.72,50723,10.88,73092.5,-7.35,-8.89,-8.85,0,*5E
1507421119.95,50724,10.88,73086.0,-7.35,-8.97,-8.85,0,*56
1507421121.19,50725,10.88,73084.3,-7.35,-8.89,-8.85,0,*58
1507421122.42,50726,10.81,73082.5,-7.35,-8.97,-8.85,0,*54
1507421123.65,50727,10.81,73082.5,-7.35,-8.85,-8.85,0,*56
1507421124.89,50728,10.88,73090.3,-7.35,-8.85,-8.85,0,*59
1507421126.12,50729,10.81,73086.3,-7.35,-8.85,-8.89,0,*54
1507421127.36,50730,10.81,73084.0,-7.35,-8.85,-8.85,0,*50
1507421128.59,50731,10.81,73082.5,-7.35,-8.85,-8.85,0,*51
1507421129.83,50732,10.88,73086.3,-7.35,-8.85,-8.89,0,*5E
1507421131.06,50733,10.81,73080.8,-7.35,-8.85,-8.75,0,*5C
1507421132.29,50734,10.88,73084.3,-7.35,-8.89,-8.75,0,*57
1507421133.51,50735,10.88,73088.8,-7.35,-8.75,-8.75,0,*55
1507421134.73,50736,10.81,73082.0,-7.35,-8.85,-8.75,0,*59
1507421135.93,50737,10.81,73082.8,-7.33,-8.71,-8.71,0,*51
1507421137.16,50738,10.88,73084.3,-7.35,-8.85,-8.71,0,*53
1507421138.36,50739,10.81,73078.3,-7.33,-8.71,-8.67,0,*58
1507421139.59,50740,10.88,73082.5,-7.35,-8.85,-8.85,0,*57
1507421140.83,50741,10.81,73074.0,-7.33,-8.81,-8.81,0,*50
1507421142.06,50742,10.88,73072.0,-7.35,-8.85,-8.75,0,*5A
1507421143.3,50743,10.88,73074.3,-7.35,-8.85,-8.85,0,*54
1507421144.52,50744,10.81,73068.5,-7.33,-8.85,-8.81,0,*51
1507421145.75,50745,10.88,73080.0,-7.33,-8.85,-8.81,0,*50
1507421146.98,50746,10.81,73076.5,-7.35,-8.85,-8.85,0,*51
1507421148.2,50747,10.81,73072.8,-7.33,-8.81,-8.71,0,*59
1507421149.44,50748,10.81,73064.5,-7.35,-8.85,-8.85,0,*5F
1507421150.67,50749,10.81,73068.5,-7.35,-8.85,-8.85,0,*5E
1507421151.91,50750,10.81,73070.0,-7.35,-8.89,-8.89,0,*56
1507421153.14,50751,10.81,73076.0,-7.35,-8.85,-8.85,0,*57
1507421154.37,50752,10.81,73068.3,-7.35,-8.89,-8.75,0,*57
1507421155.58,50753,10.81,73072.8,-7.33,-8.93,-8.85,0,*54
1507421156.81,50754,10.81,73072.3,-7.35,-8.75,-8.85,0,*5D
1507421158.03,50755,10.81,73070.0,-7.35,-8.75,-8.75,0,*53
1507421159.26,50756,10.81,73064.8,-7.35,-8.85,-8.85,0,*50
1507421160.5,50757,10.81,73072.5,-7.35,-8.85,-8.85,0,*51
1507421161.7,50758,10.81,73080.8,-7.33,-8.71,-8.71,0,*58
1507421162.92,50759,10.81,73082.3,-7.35,-8.75,-8.75,0,*5F
1507421164.14,50760,10.81,73080.8,-7.35,-8.75,-8.75,0,*55
1507421165.37,50761,10.81,73082.5,-7.35,-8.75,-8.85,0,*5B
1507421166.6,50762,10.81,73080.3,-7.35,-8.75,-8.85,0,*58
1507421167.83,50763,10.88,73082.5,-7.35,-8.85,-8.85,0,*56
1507421169.07,50764,10.81,73072.5,-7.35,-8.89,-8.85,0,*5D
1507421170.3,50765,10.81,73076.3,-7.35,-8.85,-8.75,0,*5F
1507421171.54,50766,10.88,73084.8,-7.33,-8.81,-8.81,0,*55
1507421172.76,50767,10.81,73082.5,-7.35,-8.75,-8.75,0,*52
1507421173.99,50768,10.81,73080.0,-7.35,-8.85,-8.75,0,*52
1507421175.21,50769,10.81,73076.3,-7.35,-8.85,-8.75,0,*53
1507421176.45,50770,10.81,73076.0,-7.35,-8.85,-8.85,0,*54
1507421177.67,50771,10.81,73078.8,-7.35,-8.75,-8.75,0,*55
1507421178.9,50772,10.81,73082.5,-7.35,-8.85,-8.75,0,*59
1507421180.13,50773,10.81,73082.8,-7.35,-8.85,-8.85,0,*57
1507421181.35,50774,10.81,73082.5,-7.35,-8.75,-8.75,0,*50
1507421182.55,50775,10.81,73090.3,-7.33,-8.71,-8.71,0,*57
1507421183.77,50776,10.81,73090.3,-7.35,-8.75,-8.75,0,*52
1507421185.0,50777,10.81,73088.8,-7.35,-8.71,-8.71,0,*53
1507421186.23,50778,10.81,73084.5,-7.35,-8.71,-8.71,0,*5C
1507421187.46,50779,10.81,73086.8,-7.35,-8.71,-8.63,0,*5E
1507421188.68,50780,10.81,73088.3,-7.35,-8.63,-8.63,0,*5B
1507421189.88,50781,10.81,73092.5,-7.33,-8.71,-8.59,0,*56
1507421191.11,50782,10.81,73092.0,-7.35,-8.71,-8.63,0,*5A
1507421192.3,50783,10.81,73090.8,-7.33,-8.59,-8.59,0,*5E
1507421193.49,50784,10.81,73084.5,-7.33,-8.67,-8.67,0,*59
1507421194.72,50785,10.81,73080.5,-7.35,-8.71,-8.71,0,*5E
1507421195.94,50786,10.81,73080.0,-7.35,-8.75,-8.75,0,*5D
1507421197.12,50787,10.81,73084.8,-7.33,-8.67,-8.67,0,*5A
1507421198.35,50788,10.81,73082.3,-7.35,-8.71,-8.71,0,*53
1507421199.57,50789,10.81,73084.8,-7.33,-8.67,-8.81,0,*5C
1507421200.79,50790,10.81,73082.8,-7.33,-8.71,-8.81,0,*53
1507421201.99,50791,10.81,73082.0,-7.33,-8.71,-8.71,0,*5D
1507421203.21,50792,10.81,73080.0,-7.35,-8.75,-8.75,0,*58
1507421204.41,50793,10.81,73080.3,-7.33,-8.71,-8.71,0,*5F
1507421205.65,50794,10.81,73086.5,-7.35,-8.89,-8.85,0,*52
1507421206.89,50795,10.81,73090.8,-7.33,-8.81,-8.81,0,*59
1507421208.09,50796,10.81,73090.5,-7.33,-8.71,-8.71,0,*5A
1507421209.32,50797,10.81,73084.5,-7.35,-8.85,-8.75,0,*52
1507421210.52,50798,10.81,73090.3,-7.33,-8.85,-8.71,0,*5F
1507421211.74,50799,10.81,73084.8,-7.33,-8.71,-8.81,0,*5A
1507421212.98,50800,10.81,73086.8,-7.33,-8.81,-8.81,0,*5A
1507421214.2,50801,10.81,73084.0,-7.33,-8.81,-8.71,0,*54
1507421215.44,50802,10.81,73086.8,-7.35,-8.85,-8.85,0,*5E
1507421216.68,50803,10.81,73088.8,-7.33,-8.81,-8.81,0,*59
1507421217.89,50804,10.81,73084.5,-7.33,-8.81,-8.71,0,*51
1507421219.11,50805,10.81,73086.3,-7.33,-8.81,-8.71,0,*50
1507421220.34,50806,10.81,73084.3,-7.35,-8.85,-8.75,0,*55
1507421221.54,50807,10.81,73086.0,-7.33,-8.71,-8.71,0,*5D
1507421222.74,50808,10.81,73088.8,-7.33,-8.71,-8.71,0,*52
1507421223.95,50809,10.81,73084.8,-7.33,-8.81,-8.67,0,*5B
1507421225.18,50810,10.81,73094.5,-7.35,-8.75,-8.85,0,*52
1507421226.4,50811,10.81,73096.3,-7.35,-8.75,-8.71,0,*58
1507421227.64,50812,10.81,73098.3,-7.35,-8.81,-8.67,0,*57
1507421228.87,50813,10.81,73098.0,-7.33,-8.71,-8.81,0,*57
1507421230.09,50814,10.81,73090.0,-7.35,-8.85,-8.75,0,*56
1507421231.31,50815,10.81,73084.3,-7.33,-8.81,-8.71,0,*51
1507421232.53,50816,10.81,73082.5,-7.33,-8.81,-8.71,0,*52
1507421233.73,50817,10.81,73086.8,-7.33,-8.71,-8.71,0,*5C
1507421234.93,50818,10.81,73088.0,-7.33,-8.71,-8.71,0,*53
1507421236.13,50819,10.81,73090.0,-7.33,-8.71,-8.71,0,*52
1507421237.33,50820,10.81,73082.0,-7.33,-8.71,-8.71,0,*58
1507421238.53,50821,10.81,73084.8,-7.33,-8.71,-8.71,0,*59
1507421239.72,50822,10.81,73090.5,-7.33,-8.59,-8.67,0,*57
1507421240.91,50823,10.81,73088.3,-7.33,-8.67,-8.63,0,*5F
1507421242.1,50824,10.81,73088.0,-7.33,-8.67,-8.59,0,*51
1507421243.29,50825,10.81,73088.0,-7.33,-8.67,-8.67,0,*5D
1507421244.49,50826,10.81,73090.3,-7.33,-8.55,-8.59,0,*52
1507421245.72,50827,10.81,73086.5,-7.35,-8.71,-8.71,0,*59
1507421246.91,50828,10.81,73084.3,-7.33,-8.67,-8.67,0,*50
1507421248.1,50829,10.81,73082.3,-7.33,-8.59,-8.59,0,*51
1507421249.29,50830,10.81,73080.8,-7.33,-8.59,-8.59,0,*59
1507421250.51,50831,10.81,73082.8,-7.31,-8.67,-8.67,0,*5A
1507421251.72,50832,10.81,73080.8,-7.31,-8.67,-8.59,0,*54
1507421252.91,50833,10.81,73080.3,-7.33,-8.59,-8.59,0,*5A
1507421254.11,50834,10.81,73082.0,-7.33,-8.59,-8.59,0,*5D
1507421255.3,50835,10.81,73076.5,-7.33,-8.59,-8.67,0,*51
1507421256.51,50836,10.81,73080.0,-7.31,-8.67,-8.59,0,*50
1507421257.73,50837,10.81,73076.0,-7.31,-8.59,-8.59,0,*5C
1507421258.94,50838,10.81,73068.0,-7.31,-8.59,-8.59,0,*53
1507421260.16,50839,10.81,73068.3,-7.31,-8.59,-8.59,0,*52
1507421261.37,50840,10.81,73066.8,-7.31,-8.67,-8.55,0,*5D
1507421262.59,50841,10.81,73068.3,-7.31,-8.67,-8.55,0,*5C
1507421263.8,50842,10.81,73070.0,-7.29,-8.55,-8.51,0,*53
1507421265.02,50843,10.81,73072.3,-7.31,-8.59,-8.55,0,*53
1507421266.24,50844,10.81,73076.8,-7.31,-8.55,-8.45,0,*59
1507421267.46,50845,10.81,73074.5,-7.29,-8.55,-8.51,0,*54
1507421268.68,50846,10.81,73064.8,-7.31,-8.67,-8.59,0,*57
1507421269.89,50847,10.81,73070.3,-7.31,-8.67,-8.67,0,*5B
1507421271.08,50848,10.81,73070.5,-7.29,-8.71,-8.71,0,*5D
1507421272.32,50849,10.81,73072.5,-7.31,-8.81,-8.71,0,*5A
1507421273.56,50850,10.81,73072.8,-7.31,-8.81,-8.71,0,*52
1507421274.79,50851,10.81,73078.3,-7.31,-8.71,-8.71,0,*5C
1507421276.05,50852,10.81,73076.8,-7.31,-8.81,-8.81,0,*5F
1507421277.26,50853,10.81,73078.8,-7.31,-8.67,-8.67,0,*5E
1507421278.48,50854,10.81,73074.5,-7.31,-8.71,-8.67,0,*5E
1507421279.72,50855,10.81,73080.3,-7.31,-8.81,-8.67,0,*50
1507421280.93,50856,10.81,73076.5,-7.31,-8.67,-8.67,0,*5B
1507421282.14,50857,10.81,73078.8,-7.31,-8.67,-8.67,0,*5A
1507421283.35,50858,10.81,73074.8,-7.31,-8.67,-8.67,0,*55
1507421284.57,50859,10.81,73076.8,-7.31,-8.67,-8.67,0,*54
1507421285.78,50860,10.81,73078.8,-7.31,-8.67,-8.59,0,*53
1507421286.99,50861,10.81,73082.3,-7.31,-8.67,-8.67,0,*5F
1507421288.21,50862,10.81,73082.5,-7.31,-8.59,-8.59,0,*5C
1507421289.42,50863,10.81,73080.0,-7.31,-8.67,-8.67,0,*5D
1507421290.64,50864,10.81,73080.5,-7.31,-8.59,-8.59,0,*5A
1507421291.82,50865,10.81,73082.3,-7.29,-8.63,-8.55,0,*57
1507421293.04,50866,10.81,73084.8,-7.31,-8.67,-8.59,0,*55
1507421294.25,50867,10.81,73080.3,-7.31,-8.59,-8.67,0,*54
1507421295.47,50868,10.81,73080.3,-7.31,-8.59,-8.59,0,*56
1507421296.66,50869,10.81,73078.0,-7.29,-8.63,-8.63,0,*5E
1507421297.87,50870,10.81,73078.3,-7.31,-8.59,-8.59,0,*5F
1507421299.09,50871,10.81,73080.3,-7.31,-8.67,-8.59,0,*53
1507421300.3,50872,10.81,73082.0,-7.31,-8.59,-8.55,0,*51
1507421301.51,50873,10.81,73080.3,-7.31,-8.59,-8.55,0,*50
1507421302.73,50874,10.81,73080.8,-7.29,-8.55,-8.51,0,*56
1507421303.95,50875,10.81,73082.0,-7.29,-8.63,-8.51,0,*52